星链-33962 (STARLINK-33962)

导读

STARLINK-33962是美国SpaceX星链互联网卫星星座的一员,于2025年5月13日成功发射,归入近地轨道部署。星链项目旨在构建全球覆盖的低轨卫星互联网,为偏远地区、海运航空等场景提供高速网络服务,该卫星进一步扩充了星链星座的规模,提升星座覆盖密度与服务能力,助力全球卫星互联网组网建设。

Basic Information
目录编号:
63950
目录名称:
STARLINK-33962
国际标识:
2025-098AA
轨道中心:
EARTH
卫星名称:
星链-33962
卫星全名:
星链-33962 (STARLINK-33962)
卫星状态:
在轨 (已飞行479 天)
发射日期:
2025-05-13 UTC
国别 :
美国 (US)
星等 :
--
Orbit Information
数据来源 国际轨道数据
星历时间: 2026-09-04T14:00:02+0800
8小时前
查看轨道信息
半长轴: 6895.813km
偏心率: 0.0002662
轨道倾角: 70.001°
近地点辐角 289.679°
升交点赤经 183.993°
平近点角 133.987°
近地点: 515.84km
远地点: 519.512km
周期: 94.981分钟
每日圈数: 15.160885
Detailed Information
固有亮度:
5
最大亮度:
2.5
卫星平台:
Starlink V1.0
覆盖范围:
全球
运营商:
太空探索技术公司
运营商所在国:
美国
制造商(研发单位):
太空探索技术公司
制造商所在国:
美国
使用方式:
暂无
Satellite Introduction
Starlink 计划是 SpaceX 推出的全球卫星互联网项目,通过发射低轨道卫星,为全球尤其是偏远地区提供高速、低延迟的互联网服务。自 2019 年起,Starlink 已部署数千颗卫星,旨在缩小全球数字鸿沟,推动互联网普及。该项目还为军事、航空等行业提供通信支持,带来广泛经济效益。
2D Orbit Map
3D Orbit Map
Orbit Altitude Analysis Chart
Orbit Inclination Analysis Chart
Orbit Comprehensive Analysis Chart
View Comprehensive Chart
Conjunction Data List
Event ID Objects TCA Miss Dist (km) Collision Risk Probability Collision Risk Index (CRI) Action
CDM_260905-070806-395006-630921
2026-09-05T
07:08:56+0000
0.987 km
远距离
2.411282E-5 中风险 0.63
CDM_260906-001405-813306-395021
2026-09-06T
00:14:07+0000
0.808 km
远距离
2.156552E-5 中风险 0.62
CDM_260906-144706-395006-956421
2026-09-06T
14:47:33+0000
1.553 km
极远距离
5.152521E-6 低风险 0.49
CDM_260906-093605-211306-395021
2026-09-06T
09:36:00+0000
1.831 km
极远距离
3.365419E-6 低风险 0.46
CDM_260906-005805-964106-395021
2026-09-06T
00:58:09+0000
1.585 km
极远距离
2.472199E-6 低风险 0.43
CDM_260905-165306-395006-728121
2026-09-05T
16:53:57+0000
2.420 km
极远距离
1.832129E-6 低风险 0.4
CDM_260906-091806-395006-956421
2026-09-06T
09:18:38+0000
2.657 km
极远距离
1.383597E-6 低风险 0.38
CDM_260906-043806-395006-780721
2026-09-06T
04:38:04+0000
2.747 km
极远距离
1.337526E-6 低风险 0.38
CDM_260903-191305-383906-395021
2026-09-03T
19:13:09+0000
2.897 km
极远距离
6.763773E-7 极低风险 0.32